^^

..:: Storico WU ::..




Lo storico viene creato da WUnderground con i dati che la stazione Meteomincio invia al loro server. L' aggiornamento viene fatto ogni 5 minuti circa, tuttavia possono esserci intervalli pił ampi a causa di errori, interruzioni di servizio o problemi nell' invio tramite FTP.


Storico stazione MeteoMincio
Giorno Sommario per Giugno 06, 2022 Unità:  Inglese    Metrico   Entrambi
Giorno Settimana Mese Anno
  Max: Min: Media:
Temperatura: 87.8 °F 64.4 °F 77.2 °F
Dew Point: 69.8 °F 59 °F 64.6 °F
Umidità: 82% 53% 66%
Velocità vento: 8.1mph 1.2mph 4.4mph
Raffica: 14.3mph - -
Direzione- - SSE
Pressione: 30 in 29.9 in -
Precipitazioni: 0 in    
 
 
Tabulato Dati per Giugno 06, 2022
Ora Temperatura Dew Point Pressione Direzione Velocità vento Raffica Umidità Intensità pioggia (oraria) Info solare Situazione
00:04 69.8 °F 60.8 °F 29.9 in West 3.7 mph 5 mph 76% 0 in 0.00 W/m2 unknown
00:09 69.8 °F 60.8 °F 29.9 in West 3.1 mph 5 mph 78% 0 in 0.00 W/m2 unknown
00:14 68 °F 60.8 °F 29.9 in West 3.7 mph 5 mph 78% 0 in 0.00 W/m2 unknown
00:19 68 °F 60.8 °F 29.9 in West 4.3 mph 5 mph 78% 0 in 0.00 W/m2 unknown
00:24 68 °F 62.6 °F 29.9 in WNW 4.3 mph 6.2 mph 78% 0 in 0.00 W/m2 unknown
00:29 69.8 °F 62.6 °F 29.9 in WNW 4.3 mph 5.6 mph 78% 0 in 0.00 W/m2 unknown
00:34 69.8 °F 60.8 °F 29.9 in WNW 4.3 mph 6.8 mph 77% 0 in 0.00 W/m2 unknown
00:39 69.8 °F 60.8 °F 29.9 in WNW 5 mph 6.8 mph 77% 0 in 0.00 W/m2 unknown
00:44 69.8 °F 60.8 °F 29.9 in WNW 5 mph 6.8 mph 77% 0 in 0.00 W/m2 unknown
00:49 69.8 °F 60.8 °F 29.9 in WNW 5 mph 6.8 mph 77% 0 in 0.00 W/m2 unknown
00:54 69.8 °F 60.8 °F 29.9 in WNW 5 mph 6.8 mph 77% 0 in 0.00 W/m2 unknown
00:59 69.8 °F 60.8 °F 29.9 in West 3.7 mph 6.8 mph 78% 0 in 0.00 W/m2 unknown
01:04 68 °F 60.8 °F 29.9 in WSW 3.7 mph 5 mph 78% 0 in 0.00 W/m2 unknown
01:09 68 °F 60.8 °F 29.9 in WSW 3.1 mph 3.7 mph 78% 0 in 0.00 W/m2 unknown
01:14 68 °F 60.8 °F 29.9 in WSW 3.1 mph 3.7 mph 79% 0 in 0.00 W/m2 unknown
01:19 68 °F 60.8 °F 29.9 in WSW 3.1 mph 5 mph 79% 0 in 0.00 W/m2 unknown
01:24 68 °F 60.8 °F 29.9 in WSW 3.7 mph 5 mph 79% 0 in 0.00 W/m2 unknown
01:29 68 °F 60.8 °F 29.9 in West 3.1 mph 5 mph 79% 0 in 0.00 W/m2 unknown
01:34 68 °F 60.8 °F 29.9 in West 3.1 mph 5 mph 79% 0 in 0.00 W/m2 unknown
01:39 68 °F 60.8 °F 29.9 in WNW 3.1 mph 5 mph 79% 0 in 0.00 W/m2 unknown
01:44 68 °F 60.8 °F 29.9 in WNW 3.1 mph 5 mph 79% 0 in 0.00 W/m2 unknown
01:49 68 °F 60.8 °F 29.9 in WNW 1.9 mph 5 mph 79% 0 in 0.00 W/m2 unknown
01:54 68 °F 60.8 °F 29.9 in WNW 3.1 mph 3.7 mph 78% 0 in 0.00 W/m2 unknown
01:59 68 °F 60.8 °F 29.9 in NW 3.7 mph 5 mph 77% 0 in 0.00 W/m2 unknown
02:04 68 °F 60.8 °F 29.9 in WNW 3.7 mph 5 mph 77% 0 in 0.00 W/m2 unknown
02:09 68 °F 60.8 °F 29.9 in WNW 3.1 mph 5 mph 77% 0 in 0.00 W/m2 unknown
02:13 68 °F 60.8 °F 29.9 in West 2.5 mph 5 mph 76% 0 in 0.00 W/m2 unknown
02:18 68 °F 60.8 °F 29.9 in West 3.1 mph 3.7 mph 77% 0 in 0.00 W/m2 unknown
02:24 68 °F 60.8 °F 29.9 in NW 3.1 mph 3.7 mph 76% 0 in 0.00 W/m2 unknown
02:29 68 °F 60.8 °F 29.9 in NW 3.7 mph 5 mph 76% 0 in 0.00 W/m2 unknown
02:34 68 °F 60.8 °F 29.9 in WNW 4.3 mph 5 mph 75% 0 in 0.00 W/m2 unknown
02:39 68 °F 60.8 °F 29.9 in NW 3.7 mph 8.7 mph 74% 0 in 0.00 W/m2 unknown
02:44 68 °F 60.8 °F 29.9 in NW 5 mph 9.3 mph 74% 0 in 0.00 W/m2 unknown
02:49 68 °F 59 °F 29.9 in NW 5 mph 9.3 mph 73% 0 in 0.00 W/m2 unknown
02:54 69.8 °F 59 °F 29.9 in NNW 5 mph 8.7 mph 73% 0 in 0.00 W/m2 unknown
02:59 69.8 °F 59 °F 29.9 in NNW 5 mph 6.8 mph 72% 0 in 0.00 W/m2 unknown
03:04 69.8 °F 59 °F 29.9 in NNW 5.6 mph 9.3 mph 71% 0 in 0.00 W/m2 unknown
03:09 69.8 °F 59 °F 29.9 in NNW 5.6 mph 9.3 mph 70% 0 in 0.00 W/m2 unknown
03:14 69.8 °F 59 °F 29.9 in NNW 5.6 mph 9.3 mph 70% 0 in 0.00 W/m2 unknown
03:19 69.8 °F 59 °F 29.9 in NW 5 mph 9.3 mph 69% 0 in 0.00 W/m2 unknown
03:24 69.8 °F 59 °F 29.9 in NNW 5 mph 8.7 mph 69% 0 in 0.00 W/m2 unknown
03:29 69.8 °F 59 °F 29.9 in NW 3.7 mph 6.2 mph 68% 0 in 0.00 W/m2 unknown
03:34 69.8 °F 59 °F 29.9 in NW 3.1 mph 5 mph 67% 0 in 0.00 W/m2 unknown
03:39 69.8 °F 59 °F 29.9 in WNW 3.1 mph 5 mph 67% 0 in 0.00 W/m2 unknown
03:44 69.8 °F 59 °F 29.9 in WNW 2.5 mph 3.7 mph 69% 0 in 0.00 W/m2 unknown
03:49 69.8 °F 59 °F 29.9 in WNW 3.1 mph 5 mph 70% 0 in 0.00 W/m2 unknown
03:54 69.8 °F 59 °F 29.9 in West 3.7 mph 5 mph 71% 0 in 0.00 W/m2 unknown
03:58 68 °F 59 °F 29.9 in West 3.7 mph 5 mph 72% 0 in 0.00 W/m2 unknown
04:03 68 °F 59 °F 29.9 in West 3.7 mph 5 mph 73% 0 in 0.00 W/m2 unknown
04:08 68 °F 59 °F 29.9 in West 3.1 mph 5 mph 73% 0 in 0.00 W/m2 unknown
04:14 68 °F 59 °F 29.9 in WNW 3.1 mph 3.7 mph 74% 0 in 0.00 W/m2 unknown
04:18 68 °F 59 °F 29.9 in WNW 3.7 mph 5 mph 74% 0 in 0.00 W/m2 unknown
04:24 68 °F 59 °F 29.9 in WNW 3.7 mph 6.2 mph 73% 0 in 0.00 W/m2 unknown
04:28 68 °F 59 °F 29.9 in NW 4.3 mph 6.2 mph 72% 0 in 0.00 W/m2 unknown
04:33 68 °F 59 °F 29.9 in NW 4.3 mph 5.6 mph 73% 0 in 0.00 W/m2 unknown
04:39 68 °F 59 °F 29.9 in WNW 3.1 mph 6.2 mph 74% 0 in 0.00 W/m2 unknown
04:44 68 °F 59 °F 29.9 in WNW 3.1 mph 3.7 mph 74% 0 in 0.00 W/m2 unknown
04:48 68 °F 59 °F 29.9 in WNW 3.1 mph 3.7 mph 74% 0 in 0.00 W/m2 unknown
04:53 66.2 °F 59 °F 29.9 in West 3.1 mph 3.7 mph 74% 0 in 0.00 W/m2 unknown
04:58 66.2 °F 59 °F 29.9 in WSW 3.1 mph 5 mph 75% 0 in 0.00 W/m2 unknown
05:00 66.2 °F 59 °F 29.9 in West 3.1 mph 5 mph 75% 0 in 0.00 W/m2 unknown
05:09 66.2 °F 59 °F 29.9 in West 4.3 mph 5 mph 76% 0 in 0.00 W/m2 unknown
05:14 68 °F 59 °F 29.9 in WNW 5.6 mph 6.8 mph 76% 0 in 0.00 W/m2 unknown
05:19 68 °F 59 °F 29.9 in WNW 5.6 mph 6.8 mph 74% 0 in 0.00 W/m2 unknown
05:24 68 °F 59 °F 29.9 in West 5 mph 6.8 mph 74% 0 in 0.00 W/m2 unknown
05:28 68 °F 59 °F 29.9 in WSW 5 mph 6.8 mph 76% 0 in 0.00 W/m2 unknown
05:34 66.2 °F 59 °F 29.9 in West 5 mph 3.7 mph 78% 0 in 0.00 W/m2 unknown
05:39 66.2 °F 59 °F 29.9 in WNW 3.1 mph 5 mph 78% 0 in 5.00 W/m2 unknown
05:44 66.2 °F 59 °F 29.9 in WNW 3.1 mph 5 mph 78% 0 in 7.00 W/m2 unknown
05:49 66.2 °F 59 °F 29.9 in WNW 3.1 mph 5 mph 78% 0 in 11.00 W/m2 unknown
05:54 66.2 °F 59 °F 29.9 in West 4.3 mph 6.2 mph 79% 0 in 12.00 W/m2 unknown
05:59 64.4 °F 59 °F 29.9 in WSW 5 mph 6.2 mph 80% 0 in 14.00 W/m2 unknown
06:03 64.4 °F 59 °F 29.9 in West 5 mph 6.2 mph 80% 0 in 14.00 W/m2 unknown
06:09 64.4 °F 59 °F 29.9 in West 5 mph 6.2 mph 82% 0 in 19.00 W/m2 unknown
06:13 64.4 °F 59 °F 29.9 in West 5 mph 6.2 mph 82% 0 in 21.00 W/m2 unknown
06:18 64.4 °F 59 °F 29.9 in WNW 5 mph 6.2 mph 81% 0 in 23.00 W/m2 unknown
06:24 66.2 °F 59 °F 29.9 in West 5 mph 6.2 mph 81% 0 in 35.00 W/m2 unknown
06:29 66.2 °F 59 °F 29.9 in WNW 4.3 mph 6.2 mph 80% 0 in 44.00 W/m2 unknown
06:34 66.2 °F 59 °F 29.9 in WNW 4.3 mph 6.8 mph 79% 0 in 53.00 W/m2 unknown
06:39 66.2 °F 59 °F 29.9 in WNW 5 mph 6.8 mph 78% 0 in 62.00 W/m2 unknown
06:44 66.2 °F 59 °F 29.9 in West 5 mph 6.8 mph 78% 0 in 74.00 W/m2 unknown
06:49 68 °F 59 °F 29.9 in WNW 4.3 mph 5.6 mph 77% 0 in 84.00 W/m2 unknown
06:54 68 °F 60.8 °F 29.9 in West 3.1 mph 5 mph 77% 0 in 97.00 W/m2 unknown
06:59 68 °F 60.8 °F 29.9 in WNW 3.7 mph 6.2 mph 77% 0 in 113.00 W/m2 unknown
07:04 68 °F 60.8 °F 29.9 in WNW 5 mph 6.2 mph 76% 0 in 128.00 W/m2 unknown
07:09 68 °F 60.8 °F 29.9 in WNW 5 mph 6.2 mph 75% 0 in 144.00 W/m2 unknown
07:14 68 °F 60.8 °F 29.9 in WNW 5 mph 6.2 mph 75% 0 in 151.00 W/m2 unknown
07:19 69.8 °F 60.8 °F 29.9 in WNW 5 mph 6.2 mph 74% 0 in 169.00 W/m2 unknown
07:24 69.8 °F 60.8 °F 29.9 in NNW 3.7 mph 6.2 mph 74% 0 in 186.00 W/m2 unknown
07:29 69.8 °F 60.8 °F 29.9 in NW 3.7 mph 6.2 mph 73% 0 in 200.00 W/m2 unknown
07:34 71.6 °F 60.8 °F 29.9 in NW 3.7 mph 6.2 mph 72% 0 in 213.00 W/m2 unknown
07:39 71.6 °F 60.8 °F 29.9 in NW 4.3 mph 6.8 mph 71% 0 in 227.00 W/m2 unknown
07:44 71.6 °F 62.6 °F 30 in NW 4.3 mph 6.8 mph 71% 0 in 239.00 W/m2 unknown
07:49 71.6 °F 62.6 °F 30 in NNW 5 mph 6.8 mph 71% 0 in 251.00 W/m2 unknown
07:54 71.6 °F 62.6 °F 30 in North 4.3 mph 6.2 mph 71% 0 in 265.00 W/m2 unknown
07:59 73.4 °F 62.6 °F 30 in NNW 3.1 mph 6.2 mph 70% 0 in 276.00 W/m2 unknown
08:04 73.4 °F 62.6 °F 30 in North 4.3 mph 6.2 mph 71% 0 in 288.00 W/m2 unknown
08:09 73.4 °F 62.6 °F 30 in North 4.3 mph 6.8 mph 71% 0 in 304.00 W/m2 unknown
08:14 73.4 °F 62.6 °F 30 in North 4.3 mph 6.8 mph 70% 0 in 318.00 W/m2 unknown
08:19 73.4 °F 64.4 °F 30 in NNE 3.7 mph 6.8 mph 70% 0 in 330.00 W/m2 unknown
08:24 75.2 °F 64.4 °F 30 in NNE 5 mph 6.8 mph 70% 0 in 346.00 W/m2 unknown
08:29 75.2 °F 64.4 °F 30 in NNE 5 mph 6.8 mph 70% 0 in 359.00 W/m2 unknown
08:34 75.2 °F 64.4 °F 30 in NNE 5 mph 6.8 mph 71% 0 in 371.00 W/m2 unknown
08:39 75.2 °F 64.4 °F 30 in NNE 5 mph 6.8 mph 71% 0 in 383.00 W/m2 unknown
08:44 75.2 °F 64.4 °F 30 in NNE 5.6 mph 8.1 mph 71% 0 in 397.00 W/m2 unknown
08:49 75.2 °F 64.4 °F 30 in NNE 5.6 mph 8.1 mph 72% 0 in 413.00 W/m2 unknown
08:54 75.2 °F 64.4 °F 30 in NNE 6.2 mph 8.1 mph 70% 0 in 427.00 W/m2 unknown
08:59 75.2 °F 64.4 °F 30 in NNE 6.2 mph 8.1 mph 70% 0 in 445.00 W/m2 unknown
09:04 75.2 °F 66.2 °F 30 in NNE 5 mph 6.8 mph 71% 0 in 457.00 W/m2 unknown
09:09 75.2 °F 64.4 °F 30 in NE 5 mph 6.8 mph 70% 0 in 468.00 W/m2 unknown
09:14 75.2 °F 64.4 °F 30 in NNE 5 mph 6.2 mph 70% 0 in 483.00 W/m2 unknown
09:19 75.2 °F 64.4 °F 30 in NE 5 mph 6.8 mph 69% 0 in 499.00 W/m2 unknown
09:24 77 °F 64.4 °F 30 in NNE 5 mph 8.1 mph 69% 0 in 513.00 W/m2 unknown
09:29 77 °F 64.4 °F 30 in NE 5.6 mph 8.1 mph 68% 0 in 527.00 W/m2 unknown
09:34 77 °F 64.4 °F 30 in NE 6.2 mph 8.1 mph 67% 0 in 538.00 W/m2 unknown
09:39 77 °F 64.4 °F 30 in NE 6.2 mph 8.1 mph 68% 0 in 555.00 W/m2 unknown
09:44 77 °F 64.4 °F 30 in NE 5 mph 8.1 mph 68% 0 in 561.00 W/m2 unknown
09:45 77 °F 64.4 °F 30 in ENE 3.1 mph 8.1 mph 67% 0 in 571.00 W/m2 unknown
09:54 77 °F 66.2 °F 30 in NE 3.1 mph 8.1 mph 67% 0 in 596.00 W/m2 unknown
09:59 78.8 °F 66.2 °F 30 in NNE 5 mph 6.8 mph 66% 0 in 613.00 W/m2 unknown
10:04 78.8 °F 64.4 °F 30 in ENE 5 mph 6.8 mph 65% 0 in 613.00 W/m2 unknown
10:09 78.8 °F 64.4 °F 30 in East 5 mph 8.1 mph 64% 0 in 629.00 W/m2 unknown
10:14 78.8 °F 64.4 °F 30 in ENE 5.6 mph 8.1 mph 63% 0 in 598.00 W/m2 unknown
10:19 78.8 °F 66.2 °F 30 in ENE 5.6 mph 8.1 mph 63% 0 in 657.00 W/m2 unknown
10:24 78.8 °F 66.2 °F 30 in ENE 6.2 mph 8.1 mph 63% 0 in 664.00 W/m2 unknown
10:29 78.8 °F 66.2 °F 30 in NNE 6.2 mph 8.1 mph 65% 0 in 680.00 W/m2 unknown
10:34 78.8 °F 64.4 °F 30 in East 5 mph 8.1 mph 61% 0 in 698.00 W/m2 unknown
10:39 78.8 °F 64.4 °F 30 in ENE 5 mph 8.1 mph 63% 0 in 619.00 W/m2 unknown
10:44 80.6 °F 66.2 °F 30 in NE 5 mph 6.8 mph 63% 0 in 686.00 W/m2 unknown
10:49 80.6 °F 66.2 °F 30 in ENE 4.3 mph 6.8 mph 62% 0 in 696.00 W/m2 unknown
10:54 80.6 °F 64.4 °F 30 in ENE 3.7 mph 6.8 mph 61% 0 in 675.00 W/m2 unknown
10:59 78.8 °F 64.4 °F 30 in NNE 4.3 mph 8.1 mph 61% 0 in 691.00 W/m2 unknown
11:04 80.6 °F 66.2 °F 30 in NNE 5 mph 8.1 mph 62% 0 in 668.00 W/m2 unknown
11:09 80.6 °F 66.2 °F 30 in NE 5 mph 8.1 mph 61% 0 in 673.00 W/m2 unknown
11:14 80.6 °F 66.2 °F 30 in ESE 3.1 mph 6.8 mph 64% 0 in 754.00 W/m2 unknown
11:19 80.6 °F 66.2 °F 30 in NE 4.3 mph 8.1 mph 61% 0 in 763.00 W/m2 unknown
11:24 80.6 °F 66.2 °F 30 in ESE 5 mph 8.1 mph 60% 0 in 791.00 W/m2 unknown
11:29 82.4 °F 66.2 °F 30 in NE 5 mph 8.1 mph 61% 0 in 791.00 W/m2 unknown
11:34 82.4 °F 66.2 °F 30 in NE 5.6 mph 8.1 mph 60% 0 in 826.00 W/m2 unknown
11:39 82.4 °F 66.2 °F 30 in East 5 mph 8.1 mph 58% 0 in 819.00 W/m2 unknown
11:44 82.4 °F 66.2 °F 30 in East 5.6 mph 9.3 mph 62% 0 in 807.00 W/m2 unknown
11:49 82.4 °F 66.2 °F 30 in NNE 5 mph 9.3 mph 60% 0 in 719.00 W/m2 unknown
11:54 82.4 °F 66.2 °F 30 in ENE 6.8 mph 9.3 mph 60% 0 in 700.00 W/m2 unknown
11:59 82.4 °F 66.2 °F 30 in East 6.2 mph 9.9 mph 60% 0 in 684.00 W/m2 unknown
12:04 82.4 °F 66.2 °F 30 in East 6.2 mph 10.6 mph 60% 0 in 626.00 W/m2 unknown
12:09 80.6 °F 66.2 °F 30 in East 6.2 mph 9.9 mph 61% 0 in 677.00 W/m2 unknown
12:14 82.4 °F 66.2 °F 30 in East 5 mph 8.7 mph 60% 0 in 856.00 W/m2 unknown
12:19 82.4 °F 68 °F 30 in ENE 6.2 mph 8.1 mph 61% 0 in 891.00 W/m2 unknown
12:24 84.2 °F 68 °F 30 in ENE 6.2 mph 8.1 mph 61% 0 in 891.00 W/m2 unknown
12:29 82.4 °F 68 °F 30 in East 5.6 mph 11.8 mph 60% 0 in 854.00 W/m2 unknown
12:34 84.2 °F 68 °F 30 in East 5.6 mph 11.8 mph 60% 0 in 647.00 W/m2 unknown
12:39 82.4 °F 68 °F 30 in ESE 5 mph 11.8 mph 60% 0 in 761.00 W/m2 unknown
12:44 82.4 °F 66.2 °F 30 in East 6.2 mph 8.1 mph 59% 0 in 761.00 W/m2 unknown
12:49 84.2 °F 66.2 °F 30 in East 6.2 mph 8.7 mph 58% 0 in 721.00 W/m2 unknown
12:54 82.4 °F 68 °F 30 in ESE 6.2 mph 9.3 mph 59% 0 in 763.00 W/m2 unknown
12:59 84.2 °F 68 °F 30 in ESE 5.6 mph 8.7 mph 59% 0 in 861.00 W/m2 unknown
13:04 84.2 °F 68 °F 30 in ESE 5.6 mph 14.3 mph 59% 0 in 902.00 W/m2 unknown
13:09 84.2 °F 68 °F 30 in East 6.8 mph 14.3 mph 58% 0 in 902.00 W/m2 unknown
13:14 84.2 °F 68 °F 30 in East 6.8 mph 14.3 mph 57% 0 in 889.00 W/m2 unknown
13:19 86 °F 68 °F 30 in ENE 7.5 mph 14.3 mph 57% 0 in 868.00 W/m2 unknown
13:24 86 °F 68 °F 30 in East 6.8 mph 14.3 mph 56% 0 in 863.00 W/m2 unknown
13:29 86 °F 66.2 °F 30 in East 6.8 mph 9.9 mph 55% 0 in 865.00 W/m2 unknown
13:34 86 °F 68 °F 30 in East 8.1 mph 10.6 mph 55% 0 in 865.00 W/m2 unknown
13:39 86 °F 68 °F 30 in East 6.8 mph 11.8 mph 55% 0 in 865.00 W/m2 unknown
13:44 86 °F 68 °F 29.9 in ENE 6.8 mph 11.8 mph 55% 0 in 865.00 W/m2 unknown
13:49 86 °F 68 °F 29.9 in East 6.8 mph 11.8 mph 55% 0 in 875.00 W/m2 unknown
13:54 86 °F 68 °F 29.9 in ENE 6.8 mph 11.8 mph 56% 0 in 895.00 W/m2 unknown
13:59 86 °F 68 °F 29.9 in ENE 6.8 mph 11.2 mph 56% 0 in 900.00 W/m2 unknown
14:04 86 °F 68 °F 29.9 in ESE 6.8 mph 11.2 mph 55% 0 in 933.00 W/m2 unknown
14:09 86 °F 68 °F 29.9 in ESE 6.2 mph 8.7 mph 57% 0 in 243.00 W/m2 unknown
14:14 86 °F 68 °F 29.9 in ENE 5 mph 6.8 mph 57% 0 in 972.00 W/m2 unknown
14:19 86 °F 68 °F 29.9 in East 4.3 mph 10.6 mph 57% 0 in 972.00 W/m2 unknown
14:24 86 °F 68 °F 29.9 in East 5 mph 10.6 mph 57% 0 in 984.00 W/m2 unknown
14:29 86 °F 69.8 °F 29.9 in SE 5 mph 9.9 mph 57% 0 in 984.00 W/m2 unknown
14:34 86 °F 68 °F 29.9 in East 5 mph 8.1 mph 58% 0 in 285.00 W/m2 unknown
14:39 86 °F 68 °F 29.9 in East 6.2 mph 8.7 mph 59% 0 in 350.00 W/m2 unknown
14:44 84.2 °F 68 °F 29.9 in ESE 7.5 mph 9.3 mph 59% 0 in 350.00 W/m2 unknown
14:49 84.2 °F 68 °F 29.9 in ESE 6.8 mph 9.3 mph 60% 0 in 248.00 W/m2 unknown
14:54 84.2 °F 68 °F 29.9 in ESE 6.8 mph 9.3 mph 60% 0 in 898.00 W/m2 unknown
14:59 86 °F 68 °F 29.9 in East 6.2 mph 8.1 mph 59% 0 in 932.00 W/m2 unknown
15:04 87.8 °F 69.8 °F 29.9 in ESE 3.7 mph 8.1 mph 56% 0 in 944.00 W/m2 unknown
15:09 87.8 °F 69.8 °F 29.9 in East 5 mph 8.1 mph 55% 0 in 944.00 W/m2 unknown
15:14 87.8 °F 68 °F 29.9 in East 5 mph 8.7 mph 57% 0 in 229.00 W/m2 unknown
15:19 86 °F 69.8 °F 29.9 in East 5 mph 9.3 mph 61% 0 in 584.00 W/m2 unknown
15:24 86 °F 69.8 °F 29.9 in ESE 5 mph 9.3 mph 61% 0 in 954.00 W/m2 unknown
15:29 86 °F 69.8 °F 29.9 in East 5.6 mph 8.7 mph 60% 0 in 921.00 W/m2 unknown
15:34 86 °F 69.8 °F 29.9 in East 6.8 mph 9.3 mph 59% 0 in 601.00 W/m2 unknown
15:39 86 °F 69.8 °F 29.9 in ESE 6.8 mph 10.6 mph 60% 0 in 258.00 W/m2 unknown
15:44 84.2 °F 69.8 °F 29.9 in ESE 6.8 mph 10.6 mph 61% 0 in 202.00 W/m2 unknown
15:49 84.2 °F 69.8 °F 29.9 in ESE 6.8 mph 9.3 mph 63% 0 in 230.00 W/m2 unknown
15:54 84.2 °F 69.8 °F 29.9 in ESE 6.2 mph 9.3 mph 62% 0 in 230.00 W/m2 unknown
15:59 84.2 °F 69.8 °F 29.9 in East 5.6 mph 8.1 mph 62% 0 in 232.00 W/m2 unknown
16:04 84.2 °F 69.8 °F 29.9 in ESE 5.6 mph 8.1 mph 62% 0 in 239.00 W/m2 unknown
16:09 84.2 °F 69.8 °F 29.9 in ESE 5 mph 8.1 mph 61% 0 in 239.00 W/m2 unknown
16:14 84.2 °F 69.8 °F 29.9 in ESE 3.1 mph 5 mph 62% 0 in 246.00 W/m2 unknown
16:19 84.2 °F 69.8 °F 29.9 in ESE 3.1 mph 5 mph 63% 0 in 255.00 W/m2 unknown
16:24 84.2 °F 69.8 °F 29.9 in ESE 3.1 mph 6.2 mph 63% 0 in 264.00 W/m2 unknown
16:29 84.2 °F 69.8 °F 29.9 in ESE 3.1 mph 6.2 mph 63% 0 in 281.00 W/m2 unknown
16:33 84.2 °F 69.8 °F 29.9 in ESE 3.1 mph 6.2 mph 62% 0 in 311.00 W/m2 unknown
16:39 84.2 °F 69.8 °F 29.9 in ESE 1.9 mph 3.7 mph 63% 0 in 775.00 W/m2 unknown
16:44 86 °F 69.8 °F 29.9 in ESE 2.5 mph 5 mph 62% 0 in 802.00 W/m2 unknown
16:49 86 °F 69.8 °F 29.9 in ESE 2.5 mph 5 mph 59% 0 in 784.00 W/m2 unknown
16:54 86 °F 69.8 °F 29.9 in SE 3.1 mph 8.1 mph 57% 0 in 582.00 W/m2 unknown
16:59 86 °F 69.8 °F 29.9 in SE 4.3 mph 8.1 mph 57% 0 in 422.00 W/m2 unknown
17:04 86 °F 68 °F 29.9 in SE 3.7 mph 8.1 mph 56% 0 in 494.00 W/m2 unknown
17:09 86 °F 69.8 °F 29.9 in SSE 3.1 mph 5 mph 57% 0 in 547.00 W/m2 unknown
17:14 86 °F 69.8 °F 29.9 in ESE 2.5 mph 5 mph 57% 0 in 529.00 W/m2 unknown
17:19 86 °F 69.8 °F 29.9 in SE 2.5 mph 6.8 mph 57% 0 in 613.00 W/m2 unknown
17:24 87.8 °F 69.8 °F 29.9 in ESE 3.1 mph 6.8 mph 56% 0 in 594.00 W/m2 unknown
17:29 87.8 °F 68 °F 29.9 in SE 4.3 mph 6.8 mph 55% 0 in 649.00 W/m2 unknown
17:34 87.8 °F 68 °F 29.9 in SE 4.3 mph 8.1 mph 53% 0 in 643.00 W/m2 unknown
17:39 87.8 °F 68 °F 29.9 in East 3.7 mph 8.1 mph 54% 0 in 573.00 W/m2 unknown
17:44 86 °F 68 °F 29.9 in East 5 mph 8.7 mph 55% 0 in 570.00 W/m2 unknown
17:48 86 °F 68 °F 29.9 in ESE 6.8 mph 10.6 mph 55% 0 in 548.00 W/m2 unknown
17:54 86 °F 68 °F 29.9 in East 7.5 mph 10.6 mph 54% 0 in 512.00 W/m2 unknown
17:59 86 °F 68 °F 29.9 in ESE 6.8 mph 9.9 mph 54% 0 in 471.00 W/m2 unknown
18:04 86 °F 68 °F 29.9 in East 5 mph 9.3 mph 54% 0 in 445.00 W/m2 unknown
18:09 86 °F 68 °F 29.9 in East 6.2 mph 9.3 mph 54% 0 in 417.00 W/m2 unknown
18:14 86 °F 68 °F 29.9 in ESE 6.2 mph 8.7 mph 54% 0 in 401.00 W/m2 unknown
18:19 86 °F 68 °F 29.9 in East 6.2 mph 6.8 mph 54% 0 in 380.00 W/m2 unknown
18:24 86 °F 68 °F 29.9 in East 6.2 mph 8.1 mph 53% 0 in 362.00 W/m2 unknown
18:29 86 °F 68 °F 29.9 in East 6.2 mph 8.7 mph 53% 0 in 343.00 W/m2 unknown
18:34 86 °F 68 °F 29.9 in East 6.2 mph 9.3 mph 54% 0 in 323.00 W/m2 unknown
18:38 86 °F 68 °F 29.9 in ESE 6.2 mph 9.3 mph 54% 0 in 311.00 W/m2 unknown
18:44 86 °F 68 °F 29.9 in ESE 5 mph 9.3 mph 54% 0 in 295.00 W/m2 unknown
18:49 86 °F 68 °F 29.9 in East 5 mph 8.7 mph 54% 0 in 279.00 W/m2 unknown
18:54 86 °F 68 °F 29.9 in ESE 5.6 mph 8.1 mph 54% 0 in 267.00 W/m2 unknown
18:59 86 °F 66.2 °F 29.9 in ESE 6.2 mph 6.8 mph 54% 0 in 253.00 W/m2 unknown
19:04 86 °F 68 °F 29.9 in ESE 5 mph 6.8 mph 55% 0 in 239.00 W/m2 unknown
19:09 86 °F 68 °F 29.9 in ESE 2.5 mph 3.7 mph 55% 0 in 221.00 W/m2 unknown
19:14 86 °F 68 °F 29.9 in East 3.1 mph 6.2 mph 56% 0 in 204.00 W/m2 unknown
19:19 86 °F 68 °F 29.9 in ESE 3.1 mph 6.2 mph 56% 0 in 186.00 W/m2 unknown
19:24 86 °F 68 °F 29.9 in ESE 4.3 mph 8.7 mph 56% 0 in 186.00 W/m2 unknown
19:29 86 °F 68 °F 29.9 in ESE 5 mph 9.3 mph 57% 0 in 165.00 W/m2 unknown
19:34 84.2 °F 68 °F 29.9 in ESE 5 mph 9.3 mph 58% 0 in 146.00 W/m2 unknown
19:39 84.2 °F 68 °F 29.9 in East 5 mph 8.7 mph 59% 0 in 127.00 W/m2 unknown
19:44 84.2 °F 68 °F 29.9 in East 5 mph 6.8 mph 59% 0 in 51.00 W/m2 unknown
19:49 84.2 °F 68 °F 29.9 in ESE 3.7 mph 5 mph 59% 0 in 44.00 W/m2 unknown
19:54 84.2 °F 68 °F 29.9 in ESE 3.1 mph 5 mph 59% 0 in 32.00 W/m2 unknown
19:59 84.2 °F 68 °F 29.9 in East 2.5 mph 5 mph 59% 0 in 28.00 W/m2 unknown
20:04 82.4 °F 68 °F 29.9 in East 3.1 mph 3.7 mph 59% 0 in 25.00 W/m2 unknown
20:09 82.4 °F 68 °F 29.9 in East 2.5 mph 5 mph 59% 0 in 18.00 W/m2 unknown
20:14 82.4 °F 68 °F 29.9 in East 2.5 mph 3.7 mph 61% 0 in 18.00 W/m2 unknown
20:19 82.4 °F 68 °F 29.9 in East 2.5 mph 3.7 mph 62% 0 in 23.00 W/m2 unknown
20:24 82.4 °F 68 °F 29.9 in East 1.9 mph 3.7 mph 62% 0 in 26.00 W/m2 unknown
20:29 82.4 °F 68 °F 29.9 in East 2.5 mph 3.7 mph 61% 0 in 26.00 W/m2 unknown
20:34 82.4 °F 68 °F 29.9 in ENE 1.9 mph 3.7 mph 61% 0 in 23.00 W/m2 unknown
20:39 82.4 °F 68 °F 29.9 in ENE 1.9 mph 3.7 mph 61% 0 in 21.00 W/m2 unknown
20:44 82.4 °F 66.2 °F 29.9 in ENE 1.9 mph 3.7 mph 61% 0 in 19.00 W/m2 unknown
20:49 82.4 °F 68 °F 29.9 in East 1.9 mph 3.7 mph 62% 0 in 12.00 W/m2 unknown
20:54 80.6 °F 68 °F 29.9 in East 2.5 mph 5 mph 62% 0 in 9.00 W/m2 unknown
20:59 80.6 °F 66.2 °F 29.9 in ESE 3.7 mph 6.2 mph 63% 0 in 5.00 W/m2 unknown
21:04 80.6 °F 66.2 °F 29.9 in East 4.3 mph 6.8 mph 64% 0 in 0.00 W/m2 unknown
21:09 80.6 °F 66.2 °F 29.9 in ESE 4.3 mph 6.8 mph 65% 0 in 0.00 W/m2 unknown
21:14 80.6 °F 66.2 °F 29.9 in ESE 3.1 mph 6.2 mph 65% 0 in 0.00 W/m2 unknown
21:19 78.8 °F 66.2 °F 29.9 in ESE 1.2 mph 3.1 mph 66% 0 in 0.00 W/m2 unknown
21:24 78.8 °F 66.2 °F 29.9 in ESE 1.9 mph 2.5 mph 66% 0 in 0.00 W/m2 unknown
21:29 78.8 °F 66.2 °F 29.9 in ESE 1.9 mph 2.5 mph 66% 0 in 0.00 W/m2 unknown
21:34 78.8 °F 66.2 °F 29.9 in ESE 2.5 mph 3.7 mph 65% 0 in 0.00 W/m2 unknown
21:39 78.8 °F 66.2 °F 29.9 in East 2.5 mph 3.7 mph 66% 0 in 0.00 W/m2 unknown
21:44 78.8 °F 66.2 °F 29.9 in East 2.5 mph 3.7 mph 66% 0 in 0.00 W/m2 unknown
21:49 78.8 °F 66.2 °F 29.9 in East 1.9 mph 3.7 mph 66% 0 in 0.00 W/m2 unknown
21:52 78.8 °F 66.2 °F 29.9 in East 1.9 mph 3.7 mph 65% 0 in 0.00 W/m2 unknown
21:59 78.8 °F 66.2 °F 29.9 in East 3.1 mph 5 mph 65% 0 in 0.00 W/m2 unknown
22:04 78.8 °F 66.2 °F 29.9 in ESE 3.7 mph 5 mph 65% 0 in 0.00 W/m2 unknown
22:09 78.8 °F 66.2 °F 29.9 in ESE 3.7 mph 5 mph 66% 0 in 0.00 W/m2 unknown
22:14 77 °F 66.2 °F 29.9 in ESE 3.1 mph 5 mph 66% 0 in 0.00 W/m2 unknown
22:19 77 °F 64.4 °F 29.9 in East 3.1 mph 4.3 mph 66% 0 in 0.00 W/m2 unknown
22:24 77 °F 64.4 °F 29.9 in East 3.1 mph 3.7 mph 66% 0 in 0.00 W/m2 unknown
22:29 77 °F 64.4 °F 29.9 in East 1.9 mph 5 mph 66% 0 in 0.00 W/m2 unknown
22:34 77 °F 64.4 °F 29.9 in East 3.1 mph 5 mph 66% 0 in 0.00 W/m2 unknown
22:39 77 °F 64.4 °F 29.9 in East 3.1 mph 5 mph 66% 0 in 0.00 W/m2 unknown
22:44 77 °F 64.4 °F 29.9 in East 3.1 mph 5 mph 66% 0 in 0.00 W/m2 unknown
22:49 77 °F 64.4 °F 29.9 in East 3.7 mph 5 mph 67% 0 in 0.00 W/m2 unknown
22:54 77 °F 64.4 °F 29.9 in East 3.7 mph 6.2 mph 67% 0 in 0.00 W/m2 unknown
22:59 77 °F 64.4 °F 29.9 in East 3.7 mph 6.2 mph 68% 0 in 0.00 W/m2 unknown
23:04 77 °F 64.4 °F 29.9 in East 3.7 mph 6.2 mph 68% 0 in 0.00 W/m2 unknown
23:09 75.2 °F 64.4 °F 29.9 in East 3.1 mph 6.2 mph 68% 0 in 0.00 W/m2 unknown
23:14 75.2 °F 64.4 °F 29.9 in East 3.1 mph 6.2 mph 68% 0 in 0.00 W/m2 unknown
23:19 75.2 °F 64.4 °F 29.9 in East 3.1 mph 5 mph 68% 0 in 0.00 W/m2 unknown
23:24 75.2 °F 64.4 °F 29.9 in East 3.1 mph 5 mph 69% 0 in 0.00 W/m2 unknown
23:29 75.2 °F 64.4 °F 29.9 in ENE 3.1 mph 5 mph 69% 0 in 0.00 W/m2 unknown
23:34 75.2 °F 64.4 °F 29.9 in ENE 3.1 mph 5 mph 69% 0 in 0.00 W/m2 unknown
23:39 75.2 °F 64.4 °F 29.9 in ENE 2.5 mph 3.7 mph 69% 0 in 0.00 W/m2 unknown
23:44 75.2 °F 64.4 °F 29.9 in NE 3.1 mph 3.7 mph 69% 0 in 0.00 W/m2 unknown
23:49 75.2 °F 64.4 °F 29.9 in ENE 2.5 mph 3.7 mph 69% 0 in 0.00 W/m2 unknown
23:54 75.2 °F 64.4 °F 29.9 in ENE 2.5 mph 3.7 mph 69% 0 in 0.00 W/m2 unknown
23:59 73.4 °F 62.6 °F 29.9 in ENE 2.5 mph 3.7 mph 69% 0 in 0.00 W/m2 unknown
Stazione Meteorologica MeteoMincio Rivalta s/M (MN)
Con i complimenti di Weather Underground - 2 mb



METEO PILLOLE
Il nevaio perenne più meridionale d'Europa sotto i 1500 m
Fondo della Salsa, Teramo, Abruzzo, Italia:
Si estende tra circa 1100 m e circa 1200 m di quota. Riceve neve in grosse quantità per accumuli valanghivi provenienti dalla sovrastante e quasi verticale parete nord del Monte Camicia, 2565 m, nel gruppo montuoso del Gran Sasso d'Italia. Riceve pochissime ore di sole unicamente in piena estate, restando totalmente in ombra per la maggior parte dell'anno.
Share

Non seguire questo link o sarai bannato dal sito!